Home   Weather   Anaheim   Past weeks

Flag for USA Past Weather in Anaheim, California, USA — Yesterday and Last 2 Weeks

Now
63 °F

Clear.


Feels Like: 63 °F
Forecast: 57 / 75 °F
Wind: 3 mph from Northwest

Location: Fullerton Municipal Airport

Current Time: May 27, 2017 at 11:54:54 pm

Latest Report: May 27, 2017 at 10:53 pm


Visibility: 10 mi

Pressure: 30.03 "Hg

Humidity: 65%

Dew Point: 51 °F

Location of AnaheimLocation

Past Weather in Anaheim — Graph

°F

Anaheim Temperature Yesterday

Maximum temperature yesterday: 72 °F (at 1:53 pm)
Minimum temperature yesterday: 61 °F (at 11:53 pm)
Average temperature yesterday: 66 °F

High & Low Weather Summary for the Past Weeks

 TemperatureHumidityPressure
High95 °F (May 20, 1:53 pm)93% (May 22, 12:53 am)30.05 "Hg (May 22, 12:53 am)
Low54 °F (May 16, 3:41 am)15% (May 20, 11:53 am)29.78 "Hg (May 20, 5:53 pm)
Average66 °F63%29.90 "Hg
* Reported May 12 9:38 pm — May 27 9:53 pm, Anaheim. Weather by CustomWeather, © 2017

Note: Actual official high and low records may vary slightly from our data, if they occured in-between our weather recording intervals... More about our weather records

Advertising

Anaheim Weather History for the Previous 24 Hours

Scroll right to see more
 ConditionsComfort  
Time TempWeatherWind HumidityBarometerVisibility
9:53 pm
Sat, May 27
63 °FClear.No wind68%30.02 "Hg10 mi
8:53 pm65 °FClear.5 mph61%30.01 "Hg10 mi
7:53 pm67 °FPassing clouds.7 mph61%30.00 "Hg10 mi
6:53 pm70 °FPassing clouds.6 mph53%30.00 "Hg10 mi
5:53 pm71 °FPassing clouds.8 mph51%30.00 "Hg10 mi
4:53 pm73 °FSunny.7 mph50%30.00 "Hg10 mi
3:53 pm72 °FSunny.12 mph49%30.01 "Hg10 mi
2:53 pm74 °FPassing clouds.8 mph46%30.01 "Hg10 mi
1:53 pm73 °FPassing clouds.6 mph48%30.02 "Hg10 mi
12:53 pm71 °FScattered clouds.5 mph51%30.04 "Hg10 mi
11:53 am69 °FOvercast.6 mph55%30.05 "Hg10 mi
10:53 am68 °FOvercast.No wind57%30.05 "Hg10 mi
9:53 am68 °FScattered clouds.5 mph57%30.05 "Hg10 mi
8:53 am64 °FOvercast.No wind65%30.05 "Hg10 mi
7:53 am62 °FOvercast.3 mph70%30.04 "Hg10 mi
6:53 am59 °FPassing clouds.No wind81%30.02 "Hg10 mi
5:53 am58 °FSunny.No wind81%30.01 "Hg10 mi
4:53 am60 °FPassing clouds.3 mph78%30.00 "Hg10 mi
3:53 am61 °FOvercast.No wind78%30.00 "Hg10 mi
2:53 am60 °FOvercast.3 mph80%30.01 "Hg10 mi
1:53 am59 °FClear.No wind84%30.01 "Hg10 mi
12:53 am60 °FClear.No wind78%30.01 "Hg10 mi
11:53 pm
Fri, May 26
61 °FClear.No wind67%30.01 "Hg10 mi
Weather by CustomWeather, © 2017

See weather overviewHow to use our weather pages